星链-35457(STARLINK-35457)

导读 | 豆包AI

STARLINK-35457是美国太空探索技术公司Starlink星链互联网卫星星座的一员,于2025年11月11日发射入轨,属于星链低轨互联网星座部署的最新批次卫星,主要承担全球宽带互联网覆盖任务,依托低轨轨道布局,可为全球偏远、无基础设施区域提供高速网络接入服务,延续了星链星座持续扩容、完善全球覆盖的建设节奏。

基本信息
目录编号:
66433
目录名称:
STARLINK-35457
国际标识:
2025-259M
轨道中心:
EARTH
卫星名称:
星链-35457
卫星全名:
星链-35457(STARLINK-35457)
卫星状态:
在轨 (已飞行144 天)
发射日期:
2025-11-11 UTC
国别 :
美国 (US)
星等 :
--
轨道信息
数据来源 国际轨道数据
星历时间: 2026-04-03T11:19:56+0800
1天前
查看轨道信息
半长轴: 6861.081km
偏心率: 0.0000335
轨道倾角: 42.999°
近地点辐角 242.035°
升交点赤经 135.997°
平近点角 118.047°
近地点: 482.714km
远地点: 483.174km
周期: 94.265分钟
每日圈数: 15.276152
详细信息
固有亮度:
5
最大亮度:
2.5
卫星平台:
Starlink V1.0
覆盖范围:
全球
运营商:
太空探索技术公司
运营商所在国:
美国
制造商(研发单位):
太空探索技术公司
制造商所在国:
美国
使用方式:
暂无
卫星简介
Starlink 计划是 SpaceX 推出的全球卫星互联网项目,通过发射低轨道卫星,为全球尤其是偏远地区提供高速、低延迟的互联网服务。自 2019 年起,Starlink 已部署数千颗卫星,旨在缩小全球数字鸿沟,推动互联网普及。该项目还为军事、航空等行业提供通信支持,带来广泛经济效益。
2D轨道图
3D轨道图
轨道高度分析图
轨道倾角分析图
轨道综合分析图
查看轨道综合分析图